Location: Norton
(51.3000°N, 0.8167°E)
Time: 16:42:37
(UTC+00:00)

FALCON 9 DEB - Pass Details

Date: 03 March 2021
Orbit: 371 x 387 km, 53.0° (Epoch: 13 April)

Event Time Altitude Azimuth Distance (km) Brightness Sun altitude
Rises 19:17:12 0° 280° (W) 2,294 8.7 -15.8°
Reaches altitude 10° 19:19:17 10° 283° (WNW) 1,436 7.1 -16.1°
Maximum altitude 19:22:29 64° 6° (N) 440 3.1 -16.6°
Enters shadow 19:23:15 45° 67° (ENE) 548 3.2 -16.7°
